星链-37107(STARLINK-37107)

导读

STARLINK-37107(NORAD编号68294)是美国SpaceX公司星链(Starlink)星座的一颗低轨通信卫星,于2024年12月8日发射入轨,截至2026年4月已在轨飞行约447天。 该卫星采用Starlink V1.0平台,运行在高度约355-357公里的近地轨道,轨道倾角43.001°,运行周期约91.66分钟,每日绕地球飞行约15.7圈。作为星链全球卫星互联网项目的组成部分,它旨在为全球提供高速低时延宽带服务,也可支撑军事通信、行业互联等应用,由SpaceX自行研制并运营,归属美国管辖。

基本信息
目录编号:
68294
目录名称:
STARLINK-37107
国际标识:
2026-057A
轨道中心:
EARTH
卫星名称:
星链-37107
卫星全名:
星链-37107(STARLINK-37107)
卫星状态:
在轨 (已飞行177 天)
发射日期:
2026-03-20 UTC
国别 :
美国 (US)
星等 :
--
该卫星已列入 空间交会检测服务 Space Conjunction Data Service (SCDS) ,当前飞行风险评估等级: 无高风险
轨道信息
数据来源 国际轨道数据
星历时间: 2026-09-13T06:05:16+0800
11小时前
查看轨道信息
半长轴: 6843.675km
偏心率: 0.000107
轨道倾角: 97.285°
近地点辐角 103.925°
升交点赤经 21.450°
平近点角 256.211°
近地点: 464.805km
远地点: 466.271km
周期: 93.906分钟
每日圈数: 15.33447
详细信息
固有亮度:
5
最大亮度:
2.5
卫星平台:
Starlink V1.0
覆盖范围:
全球
运营商:
太空探索技术公司
运营商所在国:
美国
制造商(研发单位):
太空探索技术公司
制造商所在国:
美国
使用方式:
暂无
卫星简介
Starlink 计划是 SpaceX 推出的全球卫星互联网项目,通过发射低轨道卫星,为全球尤其是偏远地区提供高速、低延迟的互联网服务。自 2019 年起,Starlink 已部署数千颗卫星,旨在缩小全球数字鸿沟,推动互联网普及。该项目还为军事、航空等行业提供通信支持,带来广泛经济效益。
2D轨道图
3D轨道图
轨道高度分析图
轨道倾角分析图
轨道综合分析图
查看轨道综合分析图
交会数据列表
事件ID 空间交会对象 最接近时刻(TCA) 交会距离 交会风险概率(CRP) 交会风险指数(CRI) 操作
CDM_260910-172405-374406-829422
2026-09-10T
17:24:08+0000
2.797 km
极远距离
1.385485E-6 低风险 0.38
CDM_260913-051905-229406-829421
2026-09-13T
05:19:53+0000
2.697 km
极远距离
1.127608E-6 低风险 0.36
与全量物体交会距离演化趋势
与全量物体交会风险概率演化趋势